Weather History for Blackwell, OK

Change the Weather History Date:

Sunday, January 13, 2013

  Actual Average (KPNC) Record (KPNC)
Temperature  
Mean Temperature 22 °F -  
Max Temperature 28 °F 48 °F 67 °F (1952)
Min Temperature 15 °F 20 °F 0 °F (1963)
Degree Days  
Heating Degree Days 44    
Moisture  
Dew Point 8 °F    
Average Humidity 57    
Maximum Humidity 73    
Minimum Humidity 37    
Precipitation  
Precipitation 0.00 in - - ()
Sea Level Pressure  
Sea Level Pressure 30.25 in    
Wind  
Wind Speed 13 mph (NNW)    
Max Wind Speed 18 mph    
Max Gust Speed 22 mph    
Visibility 10 miles    
Events      
Averages and records for this station are not official NWS values.
T = Trace of Precipitation, MM = Missing Value Source: NWS Daily Summary

Daily Weather History Graph

Daily Weather History Graph

Search for Another Location

Airport:

Trip Planner

Search our weather history database for the weather conditions in past years. The results will help you decide how hot, cold, wet, or windy it might be!

Date:

Astronomy

Jan. 13, 2013 Rise Set
Actual Time 7:41 AM CST 5:35 PM CST
Civil Twilight 7:13 AM CST 6:03 PM CST
Nautical Twilight 6:41 AM CST 6:35 PM CST
Astronomical Twilight 6:10 AM CST 7:06 PM CST
Moon 8:45 AM CST (1/13) 8:10 PM CST (1/13)
Length of Visible Light 10h 50m
Length of Day
9h 53m
Waxing Crescent, 5% of the Moon is Illuminated
Jan 13
Waxing Crescent
Jan 18
First Quarter
Jan 26
Full
Feb 3
Last Quarter
Feb 10
New

Hourly Weather History & Observations

Time (CST) Temp. Windchill Dew Point Humidity Pressure Visibility Wind Dir Wind Speed Gust Speed Precip Events Conditions
12:15 AM 23.0 °F 10.6 °F 14.0 °F 68% 30.08 in 10.0 mi North 13.8 mph - N/A   Clear
12:35 AM 23.0 °F 10.6 °F 14.0 °F 68% 30.08 in 10.0 mi North 13.8 mph - N/A   Clear
12:55 AM 23.0 °F 9.6 °F 12.2 °F 63% 30.08 in 10.0 mi North 16.1 mph - N/A   Clear
1:15 AM 23.0 °F 10.6 °F 12.2 °F 63% 30.10 in 10.0 mi North 13.8 mph - N/A   Clear
1:35 AM 23.0 °F 11.1 °F 10.4 °F 59% 30.12 in 10.0 mi NNW 12.7 mph - N/A   Mostly Cloudy
1:55 AM 23.0 °F 11.1 °F 10.4 °F 59% 30.12 in 10.0 mi North 12.7 mph - N/A   Partly Cloudy
2:15 AM 23.0 °F 9.6 °F 10.4 °F 59% 30.13 in 10.0 mi NNW 16.1 mph - N/A   Clear
2:35 AM 23.0 °F 9.2 °F 10.4 °F 59% 30.15 in 10.0 mi North 17.3 mph - N/A   Partly Cloudy
2:55 AM 21.2 °F 8.9 °F 10.4 °F 63% 30.15 in 10.0 mi North 12.7 mph - N/A   Clear
3:15 AM 21.2 °F 7.3 °F 8.6 °F 58% 30.15 in 10.0 mi North 16.1 mph 19.6 mph N/A   Clear
3:35 AM 21.2 °F 7.8 °F 8.6 °F 58% 30.16 in 10.0 mi North 15.0 mph 18.4 mph N/A   Clear
3:55 AM 21.2 °F 10.1 °F 10.4 °F 63% 30.16 in 10.0 mi NNW 10.4 mph - N/A   Clear
4:15 AM 21.2 °F 8.3 °F 8.6 °F 58% 30.16 in 10.0 mi North 13.8 mph - N/A   Clear
4:35 AM 19.4 °F 5.5 °F 10.4 °F 68% 30.16 in 10.0 mi NNW 15.0 mph - N/A   Clear
4:55 AM 19.4 °F 4.5 °F 8.6 °F 63% 30.17 in 10.0 mi NNW 17.3 mph 21.9 mph N/A   Partly Cloudy
5:15 AM 19.4 °F 5.5 °F 8.6 °F 63% 30.18 in 10.0 mi NNW 15.0 mph - N/A   Scattered Clouds
5:35 AM 19.4 °F 6.0 °F 8.6 °F 63% 30.19 in 10.0 mi NNW 13.8 mph - N/A   Clear
6:15 AM 19.4 °F 5.0 °F 6.8 °F 58% 30.20 in 10.0 mi North 16.1 mph - N/A   Clear
6:35 AM 17.6 °F 3.7 °F 6.8 °F 63% 30.22 in 10.0 mi NNW 13.8 mph - N/A   Clear
6:55 AM 17.6 °F 5.7 °F 6.8 °F 63% 30.22 in 10.0 mi NNW 10.4 mph - N/A   Clear
7:15 AM 17.6 °F 5.0 °F 6.8 °F 63% 30.23 in 10.0 mi NNW 11.5 mph - N/A   Clear
7:35 AM 15.8 °F 0.9 °F 6.8 °F 68% 30.24 in 10.0 mi NNW 15.0 mph - N/A   Clear
7:55 AM 15.8 °F 3.4 °F 6.8 °F 68% 30.26 in 10.0 mi NNW 10.4 mph - N/A   Clear
8:15 AM 15.8 °F 1.4 °F 6.8 °F 68% 30.27 in 10.0 mi NNW 13.8 mph - N/A   Clear
8:35 AM 17.6 °F 1.7 °F 6.8 °F 63% 30.28 in 10.0 mi NNW 18.4 mph - N/A   Clear
8:55 AM 17.6 °F 2.2 °F 6.8 °F 63% 30.30 in 10.0 mi NW 17.3 mph - N/A   Clear
9:15 AM 17.6 °F 2.2 °F 6.8 °F 63% 30.31 in 10.0 mi NW 17.3 mph - N/A   Clear
9:35 AM 17.6 °F 3.7 °F 6.8 °F 63% 30.32 in 10.0 mi NNW 13.8 mph - N/A   Clear
9:55 AM 19.4 °F 5.5 °F 6.8 °F 58% 30.33 in 10.0 mi NNW 15.0 mph - N/A   Clear
10:15 AM 19.4 °F 5.0 °F 6.8 °F 58% 30.34 in 10.0 mi NNW 16.1 mph - N/A   Clear
10:35 AM 19.4 °F 6.6 °F 6.8 °F 58% 30.34 in 10.0 mi NNW 12.7 mph - N/A   Clear
10:55 AM 21.2 °F 7.3 °F 6.8 °F 54% 30.33 in 10.0 mi North 16.1 mph 20.7 mph N/A   Clear
11:15 AM 23.0 °F 10.1 °F 6.8 °F 50% 30.33 in 10.0 mi NNW 15.0 mph 21.9 mph N/A   Clear
11:35 AM 23.0 °F 10.6 °F 6.8 °F 50% 30.31 in 10.0 mi NNW 13.8 mph 21.9 mph N/A   Clear
11:55 AM 23.0 °F 11.1 °F 6.8 °F 50% 30.30 in 10.0 mi North 12.7 mph 20.7 mph N/A   Clear
12:15 PM 23.0 °F 10.6 °F 6.8 °F 50% 30.28 in 10.0 mi North 13.8 mph - N/A   Clear
12:35 PM 24.8 °F 13.4 °F 6.8 °F 46% 30.27 in 10.0 mi NNW 12.7 mph 16.1 mph N/A   Clear
12:55 PM 24.8 °F 11.9 °F 6.8 °F 46% 30.27 in 10.0 mi NNW 16.1 mph - N/A   Clear
1:15 PM 26.6 °F 15.7 °F 6.8 °F 43% 30.26 in 10.0 mi NNW 12.7 mph 20.7 mph N/A   Clear
1:35 PM 26.6 °F 16.2 °F 6.8 °F 43% 30.26 in 10.0 mi North 11.5 mph - N/A   Clear
1:55 PM 28.4 °F 17.0 °F 6.8 °F 40% 30.26 in 10.0 mi North 15.0 mph - N/A   Clear
2:15 PM 28.4 °F 19.1 °F 6.8 °F 40% 30.26 in 10.0 mi NNW 10.4 mph 16.1 mph N/A   Clear
2:35 PM 28.4 °F 18.5 °F 6.8 °F 40% 30.25 in 10.0 mi NNW 11.5 mph - N/A   Clear
2:55 PM 28.4 °F 17.0 °F 6.8 °F 40% 30.26 in 10.0 mi NNW 15.0 mph 19.6 mph N/A   Clear
3:15 PM 28.4 °F 18.5 °F 5.0 °F 37% 30.26 in 10.0 mi North 11.5 mph - N/A   Clear
3:35 PM 28.4 °F 18.5 °F 6.8 °F 40% 30.26 in 10.0 mi NNW 11.5 mph - N/A   Clear
3:55 PM 28.4 °F 17.0 °F 5.0 °F 37% 30.27 in 10.0 mi North 15.0 mph - N/A   Clear
4:15 PM 28.4 °F 19.7 °F 5.0 °F 37% 30.27 in 10.0 mi North 9.2 mph - N/A   Clear
4:35 PM 28.4 °F 19.1 °F 5.0 °F 37% 30.27 in 10.0 mi North 10.4 mph - N/A   Clear
4:55 PM 28.4 °F 19.7 °F 5.0 °F 37% 30.29 in 10.0 mi NNW 9.2 mph - N/A   Clear
5:15 PM 28.4 °F 20.4 °F 6.8 °F 40% 30.29 in 10.0 mi NNW 8.1 mph - N/A   Clear
5:35 PM 26.6 °F 20.0 °F 6.8 °F 43% 30.29 in 10.0 mi North 5.8 mph - N/A   Clear
6:15 PM 24.8 °F 20.5 °F 8.6 °F 50% 30.29 in 10.0 mi North 3.5 mph - N/A   Clear
6:35 PM 23.0 °F 18.4 °F 10.4 °F 59% 30.29 in 10.0 mi North 3.5 mph - N/A   Clear
6:55 PM 23.0 °F 18.4 °F 10.4 °F 59% 30.30 in 10.0 mi North 3.5 mph - N/A   Scattered Clouds
7:15 PM 21.2 °F 16.4 °F 10.4 °F 63% 30.31 in 10.0 mi North 3.5 mph - N/A   Partly Cloudy
7:35 PM 19.4 °F 12.8 °F 10.4 °F 68% 30.31 in 10.0 mi North 4.6 mph - N/A   Partly Cloudy
7:55 PM 19.4 °F 11.5 °F 10.4 °F 68% 30.31 in 10.0 mi NNW 5.8 mph - N/A   Clear
8:15 PM 19.4 °F 10.4 °F 10.4 °F 68% 30.32 in 10.0 mi NNW 6.9 mph - N/A   Clear
8:35 PM 19.4 °F 10.4 °F 10.4 °F 68% 30.31 in 10.0 mi NNW 6.9 mph - N/A   Clear
8:55 PM 17.6 °F 8.2 °F 10.4 °F 73% 30.30 in 10.0 mi North 6.9 mph - N/A   Clear
9:15 PM 19.4 °F 9.5 °F 10.4 °F 68% 30.30 in 10.0 mi North 8.1 mph - N/A   Clear
9:35 PM 19.4 °F 11.5 °F 10.4 °F 68% 30.30 in 10.0 mi North 5.8 mph - N/A   Clear
9:55 PM 19.4 °F 9.5 °F 10.4 °F 68% 30.30 in 10.0 mi North 8.1 mph - N/A   Clear
10:35 PM 17.6 °F 7.3 °F 10.4 °F 73% 30.32 in 10.0 mi North 8.1 mph - N/A   Clear
10:55 PM 17.6 °F 8.2 °F 10.4 °F 73% 30.33 in 10.0 mi North 6.9 mph - N/A   Clear
11:35 PM 17.6 °F 12.3 °F 10.4 °F 73% 30.36 in 10.0 mi North 3.5 mph - N/A   Scattered Clouds
11:55 PM 15.8 °F 10.2 °F 8.6 °F 73% 30.38 in 10.0 mi NNW 3.5 mph - N/A   Partly Cloudy